QPF
0.00 0.00 0.00 0.00 0.00 0.00 0.00 0.00 0.00 0.00 0.00 0.00 0.00 0.00 0.00 0.00 0.00 0.00 0.00 0.00 0.00 0.00 0.01 0.01 0.01 0.04 0.06 0.05 0.06 0.06 0.09 0.08 0.08 0.08 0.07 0.07 0.06 0.06 0.07 0.07 0.07 0.09 0.08 0.07
0.00 0.00 0.00 0.00 0.00 0.00 0.00 0.00 0.00 0.00 0.00 0.00 0.00 0.00 0.00 0.00 0.00 0.00 0.00 0.00 0.00 0.01 0.01 0.01 0.02 0.04 0.05 0.05 0.05 0.04 0.05 0.06 0.07 0.08 0.07 0.08 0.08 0.07 0.07 0.08 0.08 0.08 0.09 0.08
0.00 0.00 0.00 0.00 0.00 0.00 0.00 0.00 0.00 0.00 0.00 0.00 0.00 0.00 0.00 0.00 0.00 0.00 0.00 0.00 0.00 0.00 0.01 0.02 0.03 0.04 0.04 0.05 0.06 0.05 0.05 0.04 0.05 0.06 0.07 0.06 0.07 0.05 0.05 0.07 0.08 0.07 0.07 0.07
0.00 0.00 0.00 0.00 0.00 0.00 0.00 0.00 0.00 0.00 0.00 0.00 0.00 0.00 0.00 0.00 0.00 0.00 0.00 0.00 0.01 0.01 0.01 0.01 0.01 0.02 0.03 0.04 0.05 0.07 0.08 0.06 0.06 0.05 0.05 0.06 0.06 0.05 0.04 0.05 0.07 0.08 0.06 0.06
0.00 0.00 0.00 0.00 0.00 0.00 0.00 0.00 0.00 0.00 0.00 0.00 0.00 0.00 0.00 0.00 0.00 0.00 0.00 0.00 0.01 0.02 0.01 0.01 0.01 0.02 0.03 0.03 0.03 0.05 0.08 0.07 0.06 0.05 0.06 0.07 0.09 0.10 0.08 0.06 0.07 0.08 0.07 0.05
0.00 0.00 0.00 0.00 0.00 0.00 0.00 0.00 0.00 0.00 0.00 0.00 0.00 0.00 0.00 0.00 0.00 0.00 0.00 0.00 0.00 0.01 0.01 0.01 0.01 0.02 0.04 0.04 0.03 0.04 0.06 0.05 0.05 0.05 0.07 0.08 0.08 0.11 0.10 0.07 0.07 0.07 0.07 0.05
0.00 0.00 0.00 0.00 0.00 0.00 0.00 0.00 0.01 0.01 0.01 0.00 0.00 0.00 0.00 0.00 0.00 0.00 0.00 0.00 0.00 0.00 0.00 0.01 0.01 0.01 0.02 0.03 0.03 0.04 0.04 0.05 0.05 0.06 0.06 0.07 0.08 0.10 0.10 0.10 0.09 0.08 0.07 0.06
0.00 0.00 0.00 0.00 0.00 0.00 0.00 0.00 0.00 0.01 0.01 0.00 0.00 0.00 0.00 0.00 0.00 0.00 0.00 0.00 0.00 0.00 0.00 0.00 0.00 0.01 0.02 0.02 0.02 0.03 0.04 0.05 0.05 0.05 0.06 0.05 0.07 0.07 0.07 0.08 0.08 0.10 0.08 0.06
0.00 0.00 0.00 0.00 0.00 0.00 0.00 0.00 0.00 0.00 0.00 0.00 0.00 0.00 0.00 0.00 0.00 0.00 0.00 0.00 0.00 0.00 0.00 0.00 0.00 0.01 0.03 0.02 0.02 0.02 0.03 0.04 0.04 0.04 0.05 0.05 0.06 0.06 0.07 0.07 0.08 0.08 0.08 0.06
0.00 0.00 0.00 0.00 0.00 0.00 0.00 0.00 0.00 0.00 0.00 0.00 0.00 0.00 0.00 0.00 0.00 0.00 0.00 0.00 0.00 0.00 0.00 0.00 0.00 0.01 0.02 0.02 0.02 0.03 0.04 0.04 0.05 0.05 0.05 0.06 0.06 0.06 0.07 0.06 0.06 0.07 0.07 0.06
0.00 0.00 0.00 0.00 0.00 0.00 0.00 0.00 0.00 0.00 0.00 0.00 0.00 0.00 0.00 0.00 0.00 0.00 0.00 0.00 0.00 0.00 0.00 0.00 0.00 0.01 0.02 0.02 0.02 0.03 0.04 0.05 0.05 0.05 0.05 0.07 0.06 0.05 0.05 0.05 0.07 0.09 0.09 0.08
0.00 0.00 0.00 0.00 0.00 0.00 0.00 0.00 0.00 0.00 0.00 0.00 0.00 0.00 0.00 0.00 0.00 0.00 0.00 0.00 0.00 0.00 0.00 0.00 0.00 0.01 0.01 0.01 0.02 0.03 0.04 0.04 0.04 0.04 0.03 0.04 0.05 0.06 0.05 0.06 0.09 0.08 0.07 0.06
0.00 0.00 0.00 0.00 0.00 0.00 0.00 0.00 0.00 0.00 0.00 0.00 0.00 0.00 0.00 0.00 0.00 0.00 0.00 0.00 0.00 0.00 0.00 0.00 0.00 0.01 0.01 0.01 0.02 0.04 0.04 0.04 0.04 0.04 0.04 0.04 0.04 0.04 0.04 0.07 0.10 0.09 0.08 0.06
0.00 0.00 0.00 0.00 0.00 0.00 0.00 0.00 0.00 0.00 0.00 0.00 0.00 0.00 0.00 0.00 0.00 0.00 0.00 0.01 0.00 0.00 0.00 0.00 0.01 0.01 0.01 0.01 0.02 0.03 0.04 0.04 0.03 0.04 0.04 0.04 0.04 0.04 0.05 0.06 0.08 0.07 0.07 0.07
0.01 0.00 0.00 0.00 0.00 0.00 0.00 0.00 0.00 0.00 0.00 0.00 0.00 0.00 0.00 0.00 0.00 0.00 0.00 0.00 0.00 0.00 0.00 0.00 0.01 0.02 0.01 0.01 0.01 0.02 0.04 0.06 0.06 0.05 0.04 0.05 0.05 0.05 0.05 0.06 0.05 0.06 0.06 0.07
0.01 0.01 0.00 0.00 0.00 0.00 0.00 0.00 0.00 0.00 0.00 0.00 0.00 0.00 0.00 0.00 0.00 0.00 0.00 0.02 0.01 0.01 0.00 0.00 0.01 0.02 0.02 0.02 0.02 0.02 0.03 0.05 0.07 0.07 0.09 0.08 0.07 0.06 0.05 0.04 0.05 0.06 0.07 0.07
0.01 0.02 0.01 0.01 0.01 0.01 0.01 0.00 0.00 0.00 0.00 0.00 0.01 0.01 0.00 0.00 0.00 0.00 0.01 0.06 0.05 0.01 0.00 0.01 0.03 0.04 0.03 0.02 0.03 0.03 0.03 0.03 0.05 0.07 0.07 0.07 0.07 0.08 0.06 0.05 0.06 0.07 0.07 0.07
0.02 0.02 0.02 0.02 0.02 0.02 0.01 0.01 0.00 0.00 0.00 0.00 0.01 0.01 0.00 0.00 0.00 0.00 0.00 0.04 0.05 0.02 0.01 0.01 0.04 0.07 0.06 0.04 0.04 0.04 0.03 0.04 0.05 0.06 0.06 0.06 0.06 0.08 0.08 0.07 0.06 0.06 0.07 0.07
0.02 0.02 0.02 0.03 0.03 0.02 0.01 0.01 0.01 0.01 0.01 0.01 0.00 0.00 0.00 0.00 0.01 0.01 0.00 0.02 0.02 0.02 0.02 0.02 0.02 0.06 0.09 0.07 0.04 0.04 0.04 0.03 0.04 0.04 0.04 0.04 0.05 0.05 0.06 0.06 0.06 0.06 0.07 0.08
0.02 0.02 0.03 0.02 0.03 0.03 0.02 0.00 0.00 0.01 0.02 0.01 0.00 0.00 0.01 0.01 0.02 0.02 0.01 0.00 0.01 0.02 0.02 0.02 0.02 0.03 0.05 0.05 0.03 0.03 0.03 0.03 0.02 0.02 0.02 0.03 0.04 0.05 0.04 0.05 0.06 0.06 0.07 0.07
0.04 0.04 0.05 0.04 0.03 0.02 0.01 0.01 0.01 0.03 0.03 0.01 0.01 0.01 0.01 0.01 0.02 0.01 0.01 0.01 0.02 0.01 0.01 0.01 0.01 0.01 0.02 0.03 0.03 0.03 0.03 0.04 0.04 0.04 0.04 0.03 0.05 0.05 0.06 0.07 0.06 0.06 0.06 0.06
0.04 0.05 0.05 0.05 0.04 0.03 0.01 0.01 0.02 0.02 0.01 0.01 0.01 0.01 0.02 0.03 0.03 0.02 0.01 0.02 0.02 0.02 0.01 0.02 0.02 0.02 0.02 0.03 0.03 0.03 0.03 0.04 0.04 0.04 0.04 0.04 0.04 0.05 0.05 0.06 0.05 0.05 0.05 0.04
0.04 0.03 0.03 0.02 0.03 0.02 0.01 0.01 0.01 0.01 0.01 0.02 0.01 0.02 0.03 0.04 0.06 0.06 0.02 0.02 0.02 0.02 0.01 0.01 0.03 0.04 0.04 0.04 0.05 0.04 0.03 0.03 0.03 0.03 0.03 0.03 0.04 0.06 0.07 0.05 0.05 0.04 0.03 0.03
0.02 0.01 0.02 0.02 0.02 0.02 0.01 0.01 0.01 0.01 0.01 0.02 0.02 0.02 0.02 0.06 0.12 0.10 0.04 0.02 0.02 0.02 0.02 0.02 0.02 0.03 0.03 0.03 0.05 0.08 0.07 0.05 0.05 0.05 0.05 0.05 0.04 0.03 0.04 0.04 0.04 0.03 0.03 0.02
0.03 0.02 0.02 0.02 0.02 0.02 0.02 0.02 0.02 0.02 0.01 0.02 0.02 0.02 0.02 0.05 0.08 0.08 0.06 0.03 0.02 0.01 0.02 0.02 0.03 0.05 0.03 0.02 0.03 0.05 0.09 0.06 0.05 0.05 0.04 0.03 0.03 0.03 0.03 0.03 0.03 0.04 0.03 0.03
0.03 0.02 0.03 0.02 0.02 0.02 0.03 0.03 0.03 0.02 0.02 0.02 0.02 0.02 0.02 0.04 0.05 0.05 0.05 0.03 0.01 0.01 0.01 0.02 0.02 0.03 0.03 0.02 0.02 0.03 0.05 0.06 0.06 0.05 0.04 0.04 0.04 0.04 0.05 0.05 0.05 0.05 0.04 0.03
MSLP
1007.21 1007.48 1007.60 1007.61 1007.56 1007.50 1007.48 1007.51 1007.60 1007.71 1007.81 1007.84 1007.78 1007.63 1007.41 1007.15 1006.92 1006.77 1006.72 1006.80 1007.00 1007.29 1007.63 1007.98 1008.32 1008.63 1008.91 1009.19 1009.49 1009.83 1010.23 1010.70 1011.22 1011.78 1012.34 1012.88 1013.37 1013.81 1014.19 1014.52 1014.80 1015.05 1015.29 1015.52
1007.52 1007.68 1007.70 1007.62 1007.52 1007.45 1007.46 1007.54 1007.69 1007.86 1007.98 1008.01 1007.92 1007.69 1007.37 1007.00 1006.67 1006.43 1006.33 1006.39 1006.60 1006.92 1007.31 1007.70 1008.06 1008.36 1008.62 1008.86 1009.11 1009.41 1009.80 1010.27 1010.84 1011.46 1012.11 1012.74 1013.33 1013.84 1014.28 1014.64 1014.93 1015.18 1015.41 1015.63
1007.61 1007.67 1007.62 1007.50 1007.40 1007.36 1007.43 1007.60 1007.82 1008.05 1008.20 1008.21 1008.05 1007.73 1007.28 1006.79 1006.34 1006.01 1005.86 1005.90 1006.13 1006.51 1006.95 1007.40 1007.80 1008.13 1008.38 1008.59 1008.80 1009.07 1009.43 1009.91 1010.50 1011.17 1011.90 1012.63 1013.31 1013.91 1014.42 1014.82 1015.14 1015.40 1015.62 1015.82
1007.42 1007.42 1007.33 1007.22 1007.16 1007.21 1007.38 1007.67 1008.00 1008.29 1008.47 1008.45 1008.22 1007.78 1007.20 1006.56 1005.98 1005.54 1005.33 1005.36 1005.62 1006.05 1006.57 1007.10 1007.57 1007.94 1008.21 1008.41 1008.59 1008.83 1009.16 1009.63 1010.23 1010.95 1011.74 1012.55 1013.32 1014.00 1014.58 1015.03 1015.39 1015.66 1015.88 1016.08
1006.99 1006.95 1006.86 1006.79 1006.83 1007.00 1007.32 1007.75 1008.20 1008.58 1008.79 1008.75 1008.45 1007.89 1007.16 1006.36 1005.64 1005.10 1004.81 1004.82 1005.10 1005.59 1006.20 1006.82 1007.37 1007.81 1008.11 1008.33 1008.50 1008.71 1009.02 1009.46 1010.06 1010.80 1011.63 1012.49 1013.32 1014.08 1014.71 1015.22 1015.62 1015.91 1016.14 1016.33
1006.39 1006.33 1006.26 1006.28 1006.43 1006.75 1007.24 1007.83 1008.42 1008.89 1009.14 1009.09 1008.71 1008.05 1007.18 1006.24 1005.37 1004.72 1004.36 1004.34 1004.64 1005.18 1005.87 1006.58 1007.23 1007.74 1008.11 1008.36 1008.53 1008.72 1009.00 1009.41 1009.98 1010.70 1011.53 1012.41 1013.29 1014.08 1014.77 1015.33 1015.75 1016.08 1016.33 1016.52
1005.74 1005.67 1005.64 1005.74 1006.02 1006.50 1007.14 1007.89 1008.60 1009.17 1009.46 1009.41 1008.98 1008.23 1007.24 1006.18 1005.20 1004.44 1004.01 1003.96 1004.26 1004.84 1005.60 1006.41 1007.15 1007.75 1008.18 1008.47 1008.66 1008.84 1009.08 1009.44 1009.96 1010.64 1011.44 1012.30 1013.17 1013.99 1014.70 1015.29 1015.75 1016.10 1016.37 1016.58
1005.18 1005.10 1005.11 1005.28 1005.66 1006.26 1007.03 1007.89 1008.71 1009.34 1009.68 1009.63 1009.18 1008.37 1007.32 1006.17 1005.10 1004.27 1003.79 1003.70 1004.00 1004.61 1005.42 1006.29 1007.11 1007.79 1008.30 1008.63 1008.84 1009.01 1009.21 1009.52 1009.98 1010.58 1011.32 1012.13 1012.97 1013.77 1014.48 1015.08 1015.56 1015.94 1016.24 1016.48
1004.82 1004.72 1004.74 1004.95 1005.38 1006.04 1006.88 1007.80 1008.67 1009.34 1009.71 1009.67 1009.22 1008.40 1007.33 1006.16 1005.06 1004.20 1003.68 1003.58 1003.86 1004.48 1005.31 1006.23 1007.10 1007.84 1008.40 1008.77 1009.01 1009.17 1009.35 1009.61 1009.99 1010.51 1011.16 1011.90 1012.67 1013.43 1014.11 1014.71 1015.20 1015.60 1015.92 1016.18
1004.73 1004.60 1004.60 1004.79 1005.21 1005.86 1006.68 1007.58 1008.44 1009.11 1009.47 1009.45 1009.03 1008.25 1007.22 1006.08 1005.02 1004.17 1003.67 1003.55 1003.83 1004.43 1005.25 1006.18 1007.07 1007.83 1008.43 1008.84 1009.10 1009.27 1009.43 1009.64 1009.96 1010.40 1010.96 1011.61 1012.30 1012.99 1013.63 1014.20 1014.68 1015.09 1015.43 1015.72
1004.92 1004.74 1004.68 1004.80 1005.14 1005.69 1006.41 1007.21 1007.98 1008.59 1008.92 1008.92 1008.55 1007.85 1006.93 1005.90 1004.94 1004.17 1003.71 1003.61 1003.87 1004.44 1005.22 1006.11 1006.97 1007.74 1008.34 1008.77 1009.06 1009.25 1009.40 1009.59 1009.86 1010.23 1010.71 1011.26 1011.87 1012.48 1013.07 1013.60 1014.06 1014.47 1014.82 1015.13
1005.31 1005.06 1004.92 1004.93 1005.12 1005.51 1006.05 1006.69 1007.31 1007.81 1008.10 1008.10 1007.81 1007.24 1006.47 1005.61 1004.80 1004.16 1003.78 1003.72 1003.97 1004.49 1005.20 1006.01 1006.82 1007.54 1008.13 1008.57 1008.87 1009.08 1009.26 1009.44 1009.69 1010.02 1010.42 1010.90 1011.43 1011.96 1012.48 1012.96 1013.39 1013.78 1014.13 1014.45
1005.79 1005.48 1005.24 1005.11 1005.13 1005.31 1005.63 1006.05 1006.48 1006.84 1007.06 1007.08 1006.87 1006.45 1005.88 1005.24 1004.64 1004.17 1003.91 1003.89 1004.13 1004.60 1005.22 1005.93 1006.63 1007.28 1007.82 1008.25 1008.57 1008.81 1009.01 1009.22 1009.47 1009.77 1010.13 1010.54 1010.99 1011.45 1011.89 1012.31 1012.70 1013.07 1013.41 1013.73
1006.24 1005.87 1005.54 1005.27 1005.12 1005.08 1005.17 1005.35 1005.58 1005.79 1005.94 1005.96 1005.85 1005.61 1005.26 1004.87 1004.51 1004.24 1004.12 1004.17 1004.41 1004.80 1005.32 1005.89 1006.48 1007.03 1007.50 1007.90 1008.22 1008.49 1008.73 1008.97 1009.23 1009.52 1009.85 1010.21 1010.58 1010.96 1011.33 1011.68 1012.02 1012.35 1012.66 1012.97
1006.56 1006.16 1005.76 1005.39 1005.08 1004.85 1004.73 1004.69 1004.73 1004.81 1004.88 1004.93 1004.92 1004.85 1004.73 1004.60 1004.49 1004.43 1004.46 1004.59 1004.83 1005.16 1005.57 1006.01 1006.45 1006.88 1007.27 1007.62 1007.93 1008.21 1008.48 1008.75 1009.03 1009.32 1009.61 1009.92 1010.22 1010.51 1010.80 1011.07 1011.35 1011.62 1011.91 1012.20
1006.70 1006.30 1005.86 1005.43 1005.02 1004.66 1004.37 1004.17 1004.06 1004.02 1004.05 1004.11 1004.21 1004.31 1004.42 1004.54 1004.67 1004.82 1005.00 1005.21 1005.46 1005.74 1006.03 1006.34 1006.65 1006.95 1007.24 1007.52 1007.81 1008.09 1008.37 1008.65 1008.93 1009.20 1009.46 1009.70 1009.92 1010.12 1010.30 1010.49 1010.69 1010.90 1011.14 1011.40
1006.67 1006.29 1005.87 1005.43 1004.98 1004.55 1004.17 1003.87 1003.66 1003.56 1003.56 1003.66 1003.85 1004.11 1004.42 1004.76 1005.11 1005.45 1005.77 1006.07 1006.33 1006.56 1006.77 1006.95 1007.13 1007.31 1007.50 1007.71 1007.95 1008.20 1008.47 1008.74 1009.00 1009.23 1009.42 1009.58 1009.70 1009.78 1009.86 1009.94 1010.05 1010.19 1010.37 1010.59
1006.52 1006.18 1005.82 1005.42 1005.00 1004.59 1004.19 1003.86 1003.62 1003.50 1003.51 1003.65 1003.93 1004.31 1004.78 1005.30 1005.83 1006.33 1006.77 1007.14 1007.43 1007.64 1007.77 1007.86 1007.93 1008.00 1008.10 1008.23 1008.41 1008.61 1008.84 1009.07 1009.27 1009.43 1009.53 1009.58 1009.58 1009.54 1009.49 1009.46 1009.46 1009.51 1009.61 1009.78
1006.34 1006.07 1005.78 1005.48 1005.15 1004.80 1004.47 1004.17 1003.96 1003.86 1003.90 1004.09 1004.43 1004.91 1005.49 1006.14 1006.79 1007.41 1007.95 1008.38 1008.70 1008.90 1008.99 1009.02 1009.01 1009.00 1009.01 1009.07 1009.17 1009.31 1009.47 1009.63 1009.75 1009.81 1009.81 1009.73 1009.60 1009.42 1009.24 1009.07 1008.95 1008.90 1008.92 1009.00
1006.23 1006.02 1005.83 1005.64 1005.43 1005.21 1004.99 1004.79 1004.64 1004.60 1004.68 1004.92 1005.31 1005.84 1006.48 1007.20 1007.93 1008.62 1009.22 1009.70 1010.05 1010.25 1010.33 1010.33 1010.27 1010.20 1010.15 1010.14 1010.18 1010.25 1010.33 1010.39 1010.41 1010.36 1010.24 1010.03 1009.76 1009.45 1009.13 1008.84 1008.60 1008.42 1008.33 1008.32
1006.26 1006.10 1006.00 1005.93 1005.87 1005.80 1005.72 1005.64 1005.60 1005.63 1005.77 1006.04 1006.45 1006.99 1007.65 1008.38 1009.14 1009.85 1010.48 1010.99 1011.36 1011.58 1011.67 1011.66 1011.59 1011.50 1011.41 1011.35 1011.32 1011.31 1011.31 1011.28 1011.20 1011.04 1010.80 1010.48 1010.09 1009.66 1009.22 1008.80 1008.44 1008.14 1007.93 1007.80
1006.46 1006.34 1006.32 1006.37 1006.45 1006.53 1006.60 1006.67 1006.74 1006.86 1007.05 1007.34 1007.74 1008.27 1008.89 1009.59 1010.32 1011.02 1011.64 1012.16 1012.54 1012.79 1012.90 1012.91 1012.85 1012.76 1012.65 1012.56 1012.48 1012.41 1012.33 1012.22 1012.05 1011.80 1011.47 1011.05 1010.57 1010.05 1009.51 1009.00 1008.53 1008.12 1007.78 1007.51
1006.80 1006.70 1006.75 1006.91 1007.12 1007.35 1007.58 1007.78 1007.98 1008.17 1008.41 1008.70 1009.09 1009.56 1010.12 1010.75 1011.41 1012.05 1012.65 1013.15 1013.54 1013.81 1013.95 1013.99 1013.96 1013.89 1013.78 1013.67 1013.57 1013.45 1013.31 1013.13 1012.89 1012.58 1012.18 1011.72 1011.18 1010.61 1010.02 1009.44 1008.89 1008.39 1007.93 1007.52
1007.24 1007.17 1007.28 1007.52 1007.86 1008.22 1008.59 1008.92 1009.22 1009.49 1009.77 1010.06 1010.40 1010.81 1011.28 1011.81 1012.38 1012.94 1013.48 1013.95 1014.34 1014.62 1014.80 1014.88 1014.88 1014.83 1014.74 1014.63 1014.50 1014.36 1014.18 1013.95 1013.67 1013.33 1012.92 1012.44 1011.90 1011.33 1010.73 1010.13 1009.54 1008.96 1008.41 1007.86
1007.71 1007.67 1007.84 1008.18 1008.61 1009.10 1009.58 1010.03 1010.43 1010.76 1011.06 1011.35 1011.64 1011.97 1012.35 1012.77 1013.23 1013.71 1014.18 1014.61 1014.98 1015.27 1015.47 1015.59 1015.63 1015.61 1015.53 1015.43 1015.29 1015.12 1014.91 1014.67 1014.37 1014.03 1013.63 1013.18 1012.69 1012.16 1011.60 1011.02 1010.43 1009.82 1009.20 1008.56
1008.17 1008.19 1008.43 1008.84 1009.37 1009.96 1010.55 1011.09 1011.56 1011.95 1012.28 1012.55 1012.80 1013.06 1013.34 1013.67 1014.03 1014.42 1014.82 1015.20 1015.55 1015.83 1016.05 1016.19 1016.26 1016.26 1016.20 1016.09 1015.94 1015.75 1015.53 1015.28 1014.99 1014.67 1014.31 1013.92 1013.50 1013.05 1012.56 1012.05 1011.50 1010.91 1010.27 1009.57
Thickness
5761 5759 5760 5772 5781 5786 5785 5782 5779 5785 5795 5790 5790 5794 5800 5802 5801 5799 5798 5794 5791 5788 5789 5786 5781 5778 5773 5769 5764 5761 5758 5756 5754 5752 5750 5747 5746 5747 5746 5745 5743 5741 5740 5740
5748 5754 5771 5779 5778 5776 5776 5774 5777 5782 5789 5788 5788 5792 5801 5801 5800 5802 5799 5795 5793 5788 5786 5783 5779 5776 5772 5767 5763 5760 5758 5756 5754 5752 5750 5748 5747 5746 5745 5744 5741 5740 5739 5738
5750 5764 5772 5767 5764 5764 5770 5773 5776 5775 5780 5787 5784 5783 5792 5798 5801 5801 5801 5799 5797 5791 5786 5782 5778 5776 5773 5768 5764 5762 5759 5756 5753 5751 5749 5746 5743 5742 5742 5741 5740 5739 5738 5737
5753 5766 5762 5757 5760 5765 5762 5778 5778 5774 5769 5774 5777 5770 5788 5795 5793 5795 5797 5798 5796 5794 5790 5784 5780 5776 5774 5771 5767 5763 5760 5756 5753 5751 5749 5745 5742 5740 5742 5741 5741 5739 5737 5736
5748 5759 5755 5753 5764 5768 5772 5779 5775 5773 5770 5771 5774 5769 5787 5794 5788 5794 5798 5798 5798 5796 5793 5788 5784 5779 5777 5774 5769 5764 5760 5756 5754 5752 5749 5746 5745 5743 5743 5741 5739 5737 5736 5735
5756 5765 5765 5765 5772 5773 5773 5769 5767 5769 5770 5753 5770 5765 5774 5792 5792 5797 5799 5798 5798 5797 5794 5790 5787 5782 5777 5775 5771 5766 5760 5756 5754 5752 5750 5747 5745 5743 5741 5738 5737 5736 5736 5735
5740 5753 5764 5771 5760 5763 5764 5754 5741 5738 5742 5752 5772 5764 5776 5796 5800 5799 5799 5798 5798 5797 5794 5789 5785 5781 5777 5773 5770 5766 5761 5756 5755 5752 5750 5748 5746 5743 5740 5738 5737 5736 5736 5735
5729 5735 5755 5764 5762 5757 5759 5761 5746 5736 5741 5757 5760 5760 5782 5797 5799 5800 5800 5799 5796 5794 5793 5789 5786 5781 5778 5774 5769 5765 5761 5756 5754 5752 5750 5749 5747 5745 5743 5740 5740 5737 5737 5736
5737 5740 5761 5767 5772 5769 5756 5760 5776 5763 5761 5755 5761 5768 5782 5791 5791 5793 5794 5793 5792 5791 5790 5788 5786 5782 5778 5774 5770 5766 5761 5757 5754 5752 5749 5747 5746 5745 5744 5741 5739 5738 5736 5735
5748 5739 5753 5761 5765 5766 5771 5768 5760 5752 5739 5740 5753 5759 5770 5778 5782 5787 5788 5787 5788 5788 5787 5786 5784 5781 5778 5774 5770 5766 5762 5758 5755 5752 5749 5748 5746 5745 5742 5741 5739 5738 5736 5734
5750 5738 5743 5749 5747 5752 5755 5756 5759 5758 5758 5746 5743 5759 5788 5784 5785 5784 5786 5786 5786 5785 5785 5783 5782 5779 5776 5773 5769 5764 5761 5757 5754 5751 5749 5747 5746 5744 5741 5739 5738 5736 5734 5732
5744 5742 5737 5745 5761 5769 5763 5761 5758 5746 5743 5751 5755 5763 5790 5787 5787 5785 5784 5784 5784 5783 5783 5781 5779 5775 5772 5770 5767 5763 5760 5757 5754 5752 5749 5747 5745 5743 5740 5738 5737 5735 5733 5732
5738 5731 5721 5725 5737 5751 5754 5760 5763 5761 5754 5750 5749 5759 5782 5783 5782 5782 5780 5779 5778 5778 5777 5776 5773 5771 5769 5767 5765 5763 5760 5757 5754 5751 5748 5745 5744 5741 5739 5738 5736 5735 5733 5731
5737 5729 5729 5726 5736 5747 5745 5753 5759 5756 5748 5749 5756 5764 5772 5775 5775 5776 5775 5775 5775 5773 5771 5770 5768 5766 5766 5764 5762 5761 5758 5756 5753 5750 5747 5744 5743 5741 5739 5737 5736 5734 5732 5731
5730 5725 5732 5744 5752 5754 5751 5751 5754 5753 5758 5756 5763 5766 5771 5773 5772 5772 5771 5770 5769 5768 5767 5766 5764 5763 5762 5761 5759 5757 5756 5754 5751 5747 5745 5743 5742 5740 5738 5736 5734 5733 5731 5730
5723 5721 5728 5731 5744 5748 5746 5752 5754 5755 5760 5761 5763 5763 5773 5772 5770 5766 5765 5764 5762 5762 5762 5763 5762 5760 5759 5757 5756 5754 5752 5750 5748 5745 5743 5742 5740 5738 5736 5735 5733 5731 5729 5728
5715 5712 5714 5721 5735 5734 5728 5745 5749 5751 5757 5758 5754 5759 5764 5760 5759 5759 5759 5759 5758 5758 5759 5759 5759 5758 5756 5755 5753 5750 5749 5747 5744 5742 5741 5739 5737 5735 5734 5733 5732 5729 5728 5726
5704 5708 5715 5719 5716 5701 5732 5752 5754 5750 5750 5756 5756 5757 5757 5755 5754 5756 5756 5754 5753 5755 5755 5755 5756 5755 5755 5753 5751 5749 5747 5743 5741 5739 5738 5737 5735 5733 5732 5730 5729 5727 5726 5724
5704 5703 5710 5711 5706 5713 5726 5738 5743 5740 5737 5748 5748 5749 5751 5751 5750 5747 5749 5750 5750 5750 5751 5752 5753 5753 5751 5749 5747 5744 5742 5740 5738 5737 5736 5735 5732 5730 5728 5726 5725 5724 5723 5721
5696 5699 5704 5705 5701 5700 5721 5736 5743 5739 5725 5741 5743 5743 5745 5745 5740 5736 5740 5743 5744 5746 5747 5747 5749 5748 5745 5743 5742 5739 5737 5735 5734 5734 5734 5733 5730 5728 5726 5724 5723 5722 5720 5719
5681 5685 5693 5699 5700 5708 5721 5730 5731 5716 5720 5734 5737 5738 5739 5736 5735 5732 5735 5735 5737 5739 5740 5741 5741 5740 5739 5738 5736 5734 5733 5732 5732 5732 5731 5729 5727 5725 5724 5722 5720 5719 5718 5716
5679 5684 5686 5692 5693 5695 5710 5719 5717 5717 5724 5728 5729 5729 5728 5726 5725 5726 5727 5728 5730 5731 5733 5734 5733 5733 5733 5732 5731 5729 5728 5729 5729 5728 5726 5725 5723 5722 5721 5718 5716 5716 5714 5712
5670 5678 5687 5687 5685 5688 5699 5705 5709 5715 5715 5717 5719 5719 5718 5717 5717 5717 5718 5720 5722 5724 5726 5727 5727 5725 5725 5726 5726 5724 5724 5725 5725 5724 5722 5720 5719 5718 5717 5714 5713 5711 5710 5710
5661 5669 5674 5674 5676 5681 5688 5696 5701 5705 5705 5707 5709 5710 5710 5709 5709 5709 5710 5711 5713 5715 5717 5719 5720 5718 5717 5718 5719 5720 5720 5721 5720 5718 5717 5715 5714 5712 5712 5711 5710 5709 5708 5708
5653 5662 5665 5665 5668 5674 5678 5684 5689 5693 5696 5697 5699 5700 5700 5701 5700 5699 5699 5701 5703 5706 5708 5710 5710 5710 5710 5712 5712 5714 5715 5716 5715 5714 5712 5711 5711 5709 5706 5703 5700 5701 5699 5699
5648 5653 5658 5662 5665 5669 5667 5674 5679 5681 5683 5686 5687 5688 5690 5691 5690 5691 5691 5693 5695 5697 5699 5700 5701 5703 5704 5705 5705 5707 5709 5710 5709 5708 5707 5707 5706 5703 5700 5696 5692 5686 5688 5686